Domov               UVHVVR             MKGP            O straneh              
ZDRAVSTVENO VARSTVO RASTLIN
  MREŽA AGROMET. POSTAJ
 ► PROGNOSTIČNA OBVESTILA
AGROMETEOROLOŠKI PODATKI -
ARSO
OBVLADOVANJE TVEGANJ ZARADI
NEUGODNIH VREMENSKIH RAZMER
  ► NARAVNE NESREČE
  ► SUŠA/MOČA
  ► NAMAKANJE
  ► ŽLED (gozdarstvo)
KARTOGRAFSKI PRIKAZI
SPLETNE POVEZAVE
PROJEKTI IN PUBLIKACIJE

AGROMETEOROLOŠKA MREŽA: VREMENSKE POSTAJE IN FENOLOŠKA OPAZOVANJA

Pregled podatkov za lokacijo Purisima, meteorološka postaja 863702

Pregled senzorjev na lokaciji

ID Ime Zadnja
vrednost
Datum
zadnje
spremembe
Tip
senzorja
4190 Temperatura 2 m (°C) 15,22 °C 12.12.2017 01:15 50YA
4191 Relativna vlaga 2 m (% RH) 72,74 % RH 12.12.2017 01:15 50YA
4192 Omočenost lista (U) 0 U 12.12.2017 01:15 A730WET
4193 Padavine (mm) 0 mm 12.12.2017 01:15 Rain-O-Matic
4214 Temperatura tal 5 cm (°C) 10,1 °C 12.12.2017 01:15 Generic -20 - +40 °C

Pregled podatkov zadnjih 24 ur

Zap.
št.
Datum in čas Purisima
Omočenost
lista
Padavine Relativna
vlaga
2
m
Temperatura
2
m
Temperatura
tal
5
cm
0 12.12.2017 01:30 0 0 72,74 15,22 10,1
1 12.12.2017 01:00 0 0 73,75 15,07 9,92
2 12.12.2017 00:30 0 0 73,74 15,09 9,84
3 12.12.2017 00:00 0 0 74,63 14,98 9,64
4 11.12.2017 23:30 0 0 75,42 14,97 9,37
5 11.12.2017 23:00 0 0 75,79 14,98 9,12
6 11.12.2017 22:30 0 0 73,68 15,28 9,01
7 11.12.2017 22:00 0 0 72,61 15,38 8,92
8 11.12.2017 21:30 0 0 72,71 15,29 8,94
9 11.12.2017 21:00 0 0 72,41 15,35 8,98
10 11.12.2017 20:30 0 0 73,96 15,18 8,91
11 11.12.2017 20:00 0 0 75,72 14,96 8,74
12 11.12.2017 19:30 0 0 75,21 15,08 8,63
13 11.12.2017 19:00 0 0 74,97 15,09 8,56
14 11.12.2017 18:30 0 0 74,87 15,03 8,53
15 11.12.2017 18:00 0 0 75,43 14,96 8,42
16 11.12.2017 17:30 0 0 75,67 14,87 8,42
17 11.12.2017 17:00 0 0 76,61 14,79 8,35
18 11.12.2017 16:30 0 0 77,85 14,53 8,33
19 11.12.2017 16:00 0 0 76,21 14,59 8,56
20 11.12.2017 15:30 0 0 72,59 14,89 8,6
21 11.12.2017 15:00 9 0 73,45 14,69 8,56
22 11.12.2017 14:30 10 0 73,94 14,73 8,62
23 11.12.2017 14:00 10 0 78,96 14,35 8,32
24 11.12.2017 13:30 10 0 80,33 14,23 8,38
25 11.12.2017 13:00 10 0 81,83 14,06 8,44
26 11.12.2017 12:30 10 0 84,1 13,85 8,36
27 11.12.2017 12:00 10 0 85,11 13,66 8,26
28 11.12.2017 11:30 10 0,4 88,92 13,09 8,35
29 11.12.2017 11:00 10 0,6 88,11 13,18 8,3
30 11.12.2017 10:30 10 0,2 87,43 13,09 8,41
31 11.12.2017 10:00 10 0,2 87,6 12,96 8,19
32 11.12.2017 09:30 10 0,2 86,48 13,13 8,18
33 11.12.2017 09:00 10 0 87,21 12,98 8,21
34 11.12.2017 08:30 10 0,2 92,05 12,58 8,27
35 11.12.2017 08:00 10 0,2 96,08 12,03 8,04
36 11.12.2017 07:30 10 0,8 99,93 10,3 8,18
37 11.12.2017 07:00 10 0,8 99,6 10,06 8,05
38 11.12.2017 06:30 10 0,8 94,89 11,02 7,49
39 11.12.2017 06:00 10 0,4 96,51 10,96 7,16
40 11.12.2017 05:30 10 0 93,52 11,71 6,96
41 11.12.2017 05:00 10 0,6 100 10,29 6,73
42 11.12.2017 04:30 8 1 100 9,12 6,03
43 11.12.2017 04:00 4 1,2 100 7,89 5,66
44 11.12.2017 03:30 5 1,8 100 7,74 5,67
45 11.12.2017 03:00 6 1,4 100 7,79 5,64
46 11.12.2017 02:30 8 1,8 100 7,9 5,59
47 11.12.2017 02:00 10 1,2 99,41 8,39 5,5
© 2011 Ministrstvo za kmetijstvo, gozdarstvo in prehrano. Vse pravice pridržane.